Mandan, ND

5:53 PM CST on December 15, 2017 (GMT -0600)
Mandan

Weather History for KY19 - April, 2014

Change the Weather History Date:

Wednesday, April 30, 2014

  Actual Average (KBIS) Record (KBIS)
Temperature  
Mean Temperature 41 °F -  
Max Temperature 50 °F 61 °F 93 °F (1992)
Min Temperature 32 °F 36 °F 16 °F (1903)
Degree Days  
Heating Degree Days 24    
Moisture  
Dew Point 28 °F    
Average Humidity 62    
Maximum Humidity 81    
Minimum Humidity 40    
Precipitation  
Precipitation 0.00 in - - ()
Sea Level Pressure  
Sea Level Pressure 30.12 in    
Wind  
Wind Speed 16 mph (NNW)    
Max Wind Speed 30 mph    
Max Gust Speed 37 mph    
Visibility 10 miles    
Events      
Averages and records for this station are not official NWS values.
T = Trace of Precipitation, MM = Missing Value Source: NWS Daily Summary

Daily Weather History Graph

Daily Weather History Graph

Search for Another Location

Airport or City:

Trip Planner

Search our weather history database for the weather conditions in past years. The results will help you decide how hot, cold, wet, or windy it might be!

Date:

Astronomy

Apr. 30, 2014 Rise Set
Actual Time 6:30 AM CDT 8:52 PM CDT
Civil Twilight 5:56 AM CDT 9:25 PM CDT
Nautical Twilight 5:14 AM CDT 10:08 PM CDT
Astronomical Twilight 4:27 AM CDT 10:56 PM CDT
Moon 7:30 AM CDT (4/30) 10:36 PM CDT (4/30)
Length of Visible Light 15h 29m
Length of Day
14h 22m
New Moon, 2% of the Moon is Illuminated
Apr 30
New Moon
May 6
First Quarter
May 14
Full
May 21
Last Quarter
May 28
New

Hourly Weather History & Observations

Time (CDT) Temp. Windchill Dew Point Humidity Pressure Visibility Wind Dir Wind Speed Gust Speed Precip Events Conditions
12:15 AM 35.6 °F 28.0 °F 28.4 °F 75% 30.15 in 10.0 mi NW 10.4 mph - N/A   Clear
12:35 AM 33.8 °F 26.4 °F 28.4 °F 81% 30.15 in 10.0 mi NW 9.2 mph - N/A   Clear
12:55 AM 33.8 °F 25.8 °F 26.6 °F 75% 30.15 in 10.0 mi NNW 10.4 mph - N/A   Clear
1:15 AM 32.0 °F 23.6 °F 26.6 °F 80% 30.15 in 10.0 mi NNW 10.4 mph - N/A   Clear
1:35 AM 32.0 °F 23.0 °F 26.6 °F 80% 30.15 in 10.0 mi NNW 11.5 mph - N/A   Clear
1:55 AM 32.0 °F 23.6 °F 26.6 °F 80% 30.14 in 10.0 mi NW 10.4 mph - N/A   Clear
2:15 AM 32.0 °F 24.2 °F 26.6 °F 80% 30.14 in 10.0 mi NW 9.2 mph - N/A   Clear
2:35 AM 32.0 °F 23.6 °F 26.6 °F 80% 30.14 in 10.0 mi NW 10.4 mph - N/A   Clear
2:55 AM 32.0 °F 23.6 °F 26.6 °F 80% 30.14 in 10.0 mi NW 10.4 mph - N/A   Clear
3:15 AM 32.0 °F 23.0 °F 26.6 °F 80% 30.14 in 10.0 mi NW 11.5 mph - N/A   Clear
3:35 AM 32.0 °F 22.1 °F 26.6 °F 80% 30.13 in 10.0 mi NW 13.8 mph - N/A   Clear
3:55 AM 32.0 °F 21.6 °F 26.6 °F 80% 30.13 in 10.0 mi NNW 15.0 mph - N/A   Scattered Clouds
4:15 AM 32.0 °F 21.6 °F 26.6 °F 80% 30.14 in 10.0 mi NNW 15.0 mph - N/A   Mostly Cloudy
4:35 AM 32.0 °F 21.6 °F 26.6 °F 80% 30.14 in 10.0 mi NW 15.0 mph - N/A   Overcast
4:55 AM 32.0 °F 21.6 °F 26.6 °F 80% 30.14 in 10.0 mi NW 15.0 mph - N/A   Overcast
5:15 AM 32.0 °F 21.6 °F 26.6 °F 80% 30.13 in 10.0 mi NW 15.0 mph 20.7 mph N/A   Mostly Cloudy
5:35 AM 32.0 °F 22.5 °F 26.6 °F 80% 30.14 in 10.0 mi NW 12.7 mph - N/A   Clear
5:55 AM 32.0 °F 21.6 °F 24.8 °F 75% 30.14 in 10.0 mi NW 15.0 mph 19.6 mph N/A   Clear
6:15 AM 32.0 °F 22.5 °F 26.6 °F 80% 30.14 in 10.0 mi NW 12.7 mph - N/A   Clear
6:35 AM 32.0 °F 22.5 °F 26.6 °F 80% 30.14 in 10.0 mi NW 12.7 mph - N/A   Clear
6:55 AM 32.0 °F 21.2 °F 26.6 °F 80% 30.14 in 10.0 mi NNW 16.1 mph - N/A   Clear
7:15 AM 32.0 °F 21.2 °F 26.6 °F 80% 30.14 in 10.0 mi NNW 16.1 mph - N/A   Mostly Cloudy
7:35 AM 32.0 °F 20.5 °F 26.6 °F 80% 30.14 in 10.0 mi NNW 18.4 mph 24.2 mph N/A   Scattered Clouds
7:55 AM 33.8 °F 23.2 °F 26.6 °F 75% 30.14 in 10.0 mi NNW 17.3 mph 24.2 mph N/A   Clear
8:15 AM 33.8 °F 22.2 °F 26.6 °F 75% 30.14 in 10.0 mi NNW 20.7 mph 25.3 mph N/A   Clear
8:35 AM 35.6 °F 24.2 °F 26.6 °F 70% 30.14 in 10.0 mi NNW 21.9 mph 26.5 mph N/A   Clear
8:55 AM 35.6 °F 24.0 °F 26.6 °F 70% 30.14 in 10.0 mi NNW 23.0 mph 29.9 mph N/A   Clear
9:15 AM 35.6 °F 24.0 °F 26.6 °F 70% 30.14 in 10.0 mi NNW 23.0 mph 27.6 mph N/A   Clear
9:35 AM 37.4 °F 26.9 °F 26.6 °F 65% 30.15 in 10.0 mi North 20.7 mph 31.1 mph N/A   Clear
9:55 AM 37.4 °F 26.6 °F 26.6 °F 65% 30.15 in 10.0 mi North 21.9 mph 28.8 mph N/A   Clear
10:15 AM 39.2 °F 29.0 °F 26.6 °F 61% 30.14 in 10.0 mi North 21.9 mph - N/A   Clear
10:35 AM 41.0 °F 31.4 °F 26.6 °F 57% 30.14 in 10.0 mi NNW 21.9 mph 27.6 mph N/A   Clear
10:55 AM 44.6 °F 35.9 °F 28.4 °F 53% 30.14 in 10.0 mi North 23.0 mph 29.9 mph N/A   Clear
11:15 AM 44.6 °F 35.5 °F 24.8 °F 46% 30.14 in 10.0 mi North 25.3 mph 35.7 mph N/A   Mostly Cloudy
11:35 AM 44.6 °F 35.9 °F 24.8 °F 46% 30.14 in 10.0 mi North 23.0 mph 29.9 mph N/A   Overcast
11:55 AM 44.6 °F 35.3 °F 24.8 °F 46% 30.14 in 10.0 mi North 26.5 mph 34.5 mph N/A   Overcast
12:15 PM 48.2 °F - 24.8 °F 40% 30.13 in 10.0 mi North 21.9 mph 29.9 mph N/A   Partly Cloudy
12:35 PM 48.2 °F - 24.8 °F 40% 30.13 in 10.0 mi North 25.3 mph 32.2 mph N/A   Clear
12:55 PM 46.4 °F 37.9 °F 23.0 °F 40% 30.13 in 10.0 mi North 25.3 mph 33.4 mph N/A   Clear
1:15 PM 46.4 °F 37.9 °F 23.0 °F 40% 30.13 in 10.0 mi North 25.3 mph 32.2 mph N/A   Clear
1:35 PM 46.4 °F 37.9 °F 24.8 °F 43% 30.13 in 10.0 mi North 25.3 mph 31.1 mph N/A   Clear
1:55 PM 46.4 °F 38.3 °F 24.8 °F 43% 30.12 in 10.0 mi North 23.0 mph 27.6 mph N/A   Clear
2:15 PM 46.4 °F 38.1 °F 24.8 °F 43% 30.12 in 10.0 mi North 24.2 mph 29.9 mph N/A   Clear
2:35 PM 48.2 °F - 26.6 °F 43% 30.12 in 10.0 mi NNW 21.9 mph 28.8 mph N/A   Clear
2:55 PM 48.2 °F - 26.6 °F 43% 30.11 in 10.0 mi NNW 25.3 mph 31.1 mph N/A   Clear
3:15 PM 48.2 °F - 28.4 °F 46% 30.10 in 10.0 mi North 20.7 mph 32.2 mph N/A   Clear
3:35 PM 50.0 °F - 28.4 °F 43% 30.10 in 10.0 mi NNW 25.3 mph 35.7 mph N/A   Clear
3:55 PM 50.0 °F - 28.4 °F 43% 30.10 in 10.0 mi NNW 27.6 mph 35.7 mph N/A   Clear
4:15 PM 50.0 °F - 30.2 °F 47% 30.10 in 10.0 mi NNW 23.0 mph 32.2 mph N/A   Clear
4:35 PM 50.0 °F - 30.2 °F 47% 30.09 in 10.0 mi North 24.2 mph 31.1 mph N/A   Clear
4:55 PM 50.0 °F - 30.2 °F 47% 30.09 in 10.0 mi North 28.8 mph 36.8 mph N/A   Clear
5:15 PM 50.0 °F - 30.2 °F 47% 30.09 in 10.0 mi North 29.9 mph 35.7 mph N/A   Clear
5:35 PM 50.0 °F - 32.0 °F 50% 30.09 in 10.0 mi North 23.0 mph 31.1 mph N/A   Clear
5:55 PM 50.0 °F - 32.0 °F 50% 30.09 in 10.0 mi North 23.0 mph 34.5 mph N/A   Partly Cloudy
6:15 PM 50.0 °F - 32.0 °F 50% 30.09 in 10.0 mi North 25.3 mph 33.4 mph N/A   Mostly Cloudy
6:35 PM 50.0 °F - 32.0 °F 50% 30.09 in 10.0 mi North 24.2 mph 33.4 mph N/A   Overcast
6:55 PM 50.0 °F - 32.0 °F 50% 30.09 in 10.0 mi North 27.6 mph 36.8 mph N/A   Overcast
7:15 PM 50.0 °F - 32.0 °F 50% 30.09 in 10.0 mi North 24.2 mph 33.4 mph N/A   Overcast
7:35 PM 48.2 °F - 32.0 °F 54% 30.09 in 10.0 mi North 23.0 mph 31.1 mph N/A   Mostly Cloudy
7:55 PM 48.2 °F - 32.0 °F 54% 30.09 in 10.0 mi North 20.7 mph 29.9 mph N/A   Scattered Clouds
8:15 PM 48.2 °F - 32.0 °F 54% 30.09 in 10.0 mi North 17.3 mph 23.0 mph N/A   Partly Cloudy
8:35 PM 48.2 °F - 32.0 °F 54% 30.09 in 10.0 mi North 18.4 mph 24.2 mph N/A   Mostly Cloudy
8:55 PM 46.4 °F 40.1 °F 32.0 °F 57% 30.09 in 10.0 mi North 15.0 mph 21.9 mph N/A   Scattered Clouds
9:15 PM 46.4 °F 39.8 °F 32.0 °F 57% 30.10 in 10.0 mi North 16.1 mph - N/A   Clear
9:35 PM 44.6 °F 38.8 °F 32.0 °F 61% 30.10 in 10.0 mi North 11.5 mph 20.7 mph N/A   Clear
9:55 PM 44.6 °F 38.8 °F 32.0 °F 61% 30.11 in 10.0 mi North 11.5 mph - N/A   Mostly Cloudy
10:15 PM 44.6 °F 38.8 °F 32.0 °F 61% 30.11 in 10.0 mi NNW 11.5 mph - N/A   Overcast
10:35 PM 44.6 °F 39.7 °F 32.0 °F 61% 30.11 in 10.0 mi NNW 9.2 mph - N/A   Overcast
10:55 PM 42.8 °F 37.5 °F 32.0 °F 66% 30.10 in 10.0 mi NNW 9.2 mph - N/A   Overcast
11:15 PM 44.6 °F 39.2 °F 32.0 °F 61% 30.10 in 10.0 mi North 10.4 mph - N/A   Overcast
11:35 PM 42.8 °F 36.6 °F 30.2 °F 61% 30.10 in 10.0 mi North 11.5 mph - N/A   Mostly Cloudy
11:55 PM 41.0 °F 35.8 °F 30.2 °F 65% 30.10 in 10.0 mi NW 8.1 mph - N/A   Partly Cloudy